GW4813 Weather Reports


time (UTC)temp
C
wind
direction
speed
KPH
gust
KPH
rain 1hr
cm
rain 24hr
cm
rain mn
cm
humidity
%
barometer
mb
20260508220509 17 256 0.0 4.8 0.00 0.00 0.00 57 1009.9
20260508220033 17 240 0.0 6.4 0.00 0.00 0.00 56 1009.9
20260508215509 17 265 3.2 6.4 0.00 0.00 0.00 54 1009.9
20260508215011 17 267 1.6 4.8 0.00 0.00 0.00 55 1009.8
20260508214528 17 277 1.6 4.8 0.00 0.00 0.00 54 1009.8
20260508214006 17 240 1.6 4.8 0.00 0.00 0.00 53 1009.9
20260508213507 17 263 3.2 8.0 0.00 0.00 0.00 52 1009.8
20260508213024 17 263 1.6 11.3 0.00 0.00 0.00 53 1009.8
20260508212508 17 292 4.8 11.3 0.00 0.00 0.00 52 1009.9
20260508212003 17 254 3.2 8.0 0.00 0.00 0.00 53 1009.9
20260508211505 17 283 3.2 8.0 0.00 0.00 0.00 51 1010.0
20260508211006 17 243 4.8 8.0 0.00 0.00 0.00 51 1010.1
20260508210503 17 270 4.8 8.0 0.00 0.00 0.00 50 1010.2
20260508210006 17 257 4.8 11.3 0.00 0.00 0.00 50 1010.3
20260508205504 17 236 6.4 12.9 0.00 0.00 0.00 49 1010.2
20260508205006 17 276 6.4 17.7 0.00 0.00 0.00 49 1010.2
20260508204510 17 218 6.4 17.7 0.00 0.00 0.00 50 1010.2
20260508204006 18 243 8.0 14.5 0.00 0.00 0.00 48 1010.2
20260508203507 18 252 6.4 17.7 0.00 0.00 0.00 48 1010.3
20260508203014 18 248 11.3 17.7 0.00 0.00 0.00 47 1010.5
20260508202508 18 288 9.7 17.7 0.00 0.00 0.00 48 1010.5
20260508202009 18 270 8.0 20.9 0.00 0.00 0.00 48 1010.5
20260508201522 18 248 11.3 22.5 0.00 0.00 0.00 48 1010.6
20260508201010 18 260 14.5 24.1 0.00 0.00 0.00 47 1010.7
20260508200504 18 231 14.5 27.4 0.00 0.00 0.00 46 1010.8
20260508200005 18 259 14.5 27.4 0.00 0.00 0.00 46 1010.7
20260508195503 18 265 14.5 27.4 0.00 0.00 0.00 45 1010.6
20260508195003 18 299 12.9 27.4 0.00 0.00 0.00 45 1010.7
20260508194508 18 252 19.3 27.4 0.00 0.00 0.00 45 1010.7
20260508194003 18 238 16.1 32.2 0.00 0.00 0.00 43 1010.8
20260508193506 18 259 20.9 32.2 0.00 0.00 0.00 43 1010.8
20260508193012 18 233 16.1 30.6 0.00 0.00 0.00 44 1011.0
20260508192507 19 200 17.7 27.4 0.00 0.00 0.00 45 1011.0
20260508192012 18 219 14.5 27.4 0.00 0.00 0.00 44 1011.1
20260508191524 19 205 16.1 27.4 0.00 0.00 0.00 44 1011.2
20260508191007 19 269 16.1 29.0 0.00 0.00 0.00 45 1011.2
20260508190508 19 238 11.3 29.0 0.00 0.00 0.00 47 1011.4
20260508190032 19 248 14.5 27.4 0.00 0.00 0.00 45 1011.5
20260508185508 19 180 12.9 27.4 0.00 0.00 0.00 47 1011.6
20260508185011 18 242 19.3 29.0 0.00 0.00 0.00 47 1011.7
20260508184504 18 246 19.3 29.0 0.00 0.00 0.00 45 1011.7
20260508184004 19 248 11.3 25.7 0.00 0.00 0.00 48 1011.7
20260508183507 18 245 14.5 25.7 0.00 0.00 0.00 48 1011.7
20260508183008 18 259 14.5 22.5 0.00 0.00 0.00 48 1011.8
20260508182504 18 238 12.9 22.5 0.00 0.00 0.00 49 1011.8
20260508182006 17 276 16.1 22.5 0.00 0.00 0.00 49 1011.9
20260508181516 17 240 9.7 19.3 0.00 0.00 0.00 50 1011.9
20260508181007 17 238 9.7 19.3 0.00 0.00 0.00 51 1011.9
20260508180510 17 259 11.3 20.9 0.00 0.00 0.00 50 1012.0
20260508180020 18 278 11.3 24.1 0.00 0.00 0.00 49 1012.1
20260508175508 18 241 11.3 25.7 0.00 0.00 0.00 50 1012.1
20260508175012 18 208 14.5 29.0 0.00 0.00 0.00 48 1012.1
20260508174522 18 212 11.3 38.6 0.00 0.00 0.00 48 1012.1
20260508174010 19 233 19.3 38.6 0.00 0.00 0.00 46 1012.3
20260508173510 19 242 19.3 29.0 0.00 0.00 0.00 48 1012.3
20260508173007 19 256 16.1 27.4 0.00 0.00 0.00 47 1012.3
20260508172505 19 226 17.7 27.4 0.00 0.00 0.00 47 1012.4
20260508172006 19 224 14.5 27.4 0.00 0.00 0.00 48 1012.4
20260508171514 18 230 16.1 27.4 0.00 0.00 0.00 47 1012.5
20260508171009 18 261 12.9 24.1 0.00 0.00 0.00 46 1012.6
20260508170507 18 243 16.1 29.0 0.00 0.00 0.00 48 1012.9
20260508170016 18 250 19.3 29.0 0.00 0.00 0.00 52 1013.0
20260508165507 18 245 14.5 25.7 0.00 0.00 0.00 50 1013.2
20260508165013 17 212 17.7 25.7 0.00 0.00 0.00 50 1013.3
20260508164517 17 236 14.5 25.7 0.00 0.00 0.00 49 1013.4
20260508164011 17 240 8.0 19.3 0.00 0.00 0.00 51 1013.4
20260508163509 17 245 9.7 19.3 0.00 0.00 0.00 54 1013.6
20260508163023 17 245 11.3 24.1 0.00 0.00 0.00 51 1013.6
20260508162510 17 242 11.3 27.4 0.00 0.00 0.00 53 1013.6
20260508162011 17 203 12.9 27.4 0.00 0.00 0.00 52 1013.6
20260508161525 17 238 11.3 17.7 0.00 0.00 0.00 53 1013.7
20260508161004 17 278 11.3 32.2 0.00 0.00 0.00 53 1013.8
20260508160504 17 201 12.9 32.2 0.00 0.00 0.00 52 1013.8
20260508160011 17 159 17.7 32.2 0.00 0.00 0.00 51 1013.7
20260508155508 17 181 12.9 30.6 0.00 0.00 0.00 52 1013.8
20260508155010 17 210 11.3 33.8 0.00 0.00 0.00 52 1013.9
20260508154516 16 248 16.1 33.8 0.00 0.00 0.00 52 1014.0
20260508154010 17 225 12.9 24.1 0.00 0.00 0.00 53 1013.9
20260508153513 16 195 16.1 24.1 0.00 0.00 0.00 52 1013.9
20260508153020 16 214 11.3 19.3 0.00 0.00 0.00 52 1013.9
20260508152510 16 233 9.7 22.5 0.00 0.00 0.00 53 1013.9
20260508152011 16 224 9.7 27.4 0.00 0.00 0.00 54 1013.9
20260508151529 15 264 12.9 27.4 0.00 0.00 0.00 56 1013.9
20260508151013 15 232 16.1 25.7 0.00 0.00 0.00 54 1013.9
20260508150511 15 206 8.0 19.3 0.00 0.00 0.00 56 1014.0
20260508150033 15 230 11.3 19.3 0.00 0.00 0.00 55 1014.0
20260508145507 15 235 8.0 20.9 0.00 0.00 0.00 55 1014.0
20260508145004 15 266 16.1 20.9 0.00 0.00 0.00 54 1014.2
20260508144512 15 274 12.9 20.9 0.00 0.00 0.00 54 1014.1
20260508144005 15 278 12.9 20.9 0.00 0.00 0.00 53 1014.1
20260508143509 16 259 8.0 24.1 0.00 0.00 0.00 54 1014.3
20260508143024 15 255 11.3 24.1 0.00 0.00 0.00 59 1014.3
20260508142507 15 250 9.7 22.5 0.00 0.00 0.00 58 1014.3
20260508142010 15 279 11.3 22.5 0.00 0.00 0.00 55 1014.4
20260508141531 14 268 12.9 20.9 0.00 0.00 0.00 58 1014.5
20260508141009 14 264 8.0 22.5 0.00 0.00 0.00 57 1014.5
20260508140511 13 227 14.5 22.5 0.00 0.00 0.00 57 1014.5
20260508140025 13 286 9.7 20.9 0.00 0.00 0.00 55 1014.6
20260508135510 13 257 12.9 20.9 0.00 0.00 0.00 56 1014.5
20260508135012 13 214 12.9 22.5 0.00 0.00 0.00 57 1014.6
20260508134537 13 240 11.3 22.5 0.00 0.00 0.00 56 1014.6
20260508134008 13 236 11.3 19.3 0.00 0.00 0.00 60 1014.6
20260508133512 13 263 4.8 12.9 0.00 0.00 0.00 60 1014.7
20260508133015 12 290 4.8 11.3 0.00 0.00 0.00 60 1014.7
20260508132508 12 285 6.4 16.1 0.00 0.00 0.00 60 1014.5
20260508132008 12 233 8.0 16.1 0.00 0.00 0.00 58 1014.5
20260508131522 12 233 8.0 16.1 0.00 0.00 0.00 60 1014.5
20260508131010 12 264 8.0 17.7 0.00 0.00 0.00 60 1014.4
20260508130508 12 263 9.7 17.7 0.00 0.00 0.00 59 1014.5
20260508130028 12 224 4.8 17.7 0.00 0.00 0.00 60 1014.5
20260508125512 12 222 8.0 17.7 0.00 0.00 0.00 62 1014.5
20260508125014 11 291 6.4 14.5 0.00 0.00 0.00 60 1014.6
20260508124530 11 242 6.4 14.5 0.00 0.00 0.00 59 1014.6
20260508124012 12 247 8.0 14.5 0.00 0.00 0.00 59 1014.5
20260508123513 11 285 9.7 14.5 0.00 0.00 0.00 59 1014.5
20260508123042 11 250 6.4 17.7 0.00 0.00 0.00 59 1014.5
20260508122508 11 217 11.3 17.7 0.00 0.00 0.00 62 1014.6
20260508122008 11 233 6.4 16.1 0.00 0.00 0.00 61 1014.5
20260508121517 11 247 6.4 9.7 0.00 0.00 0.00 62 1014.5
20260508121007 10 238 3.2 8.0 0.00 0.00 0.00 64 1014.4
20260508120507 10 229 4.8 8.0 0.00 0.00 0.00 63 1014.6
20260508120005 10 281 3.2 8.0 0.00 0.00 0.00 64 1014.6
20260508115504 10 236 3.2 8.0 0.00 0.00 0.00 66 1014.5
20260508115003 10 214 0.0 4.8 0.00 0.00 0.00 69 1014.4
20260508114508 9 189 0.0 4.8 0.00 0.00 0.00 70 1014.3
20260508114004 9 117 0.0 3.2 0.00 0.00 0.00 70 1014.3
20260508113503 8 113 0.0 0.0 0.00 0.00 0.00 69 1014.3
20260508113014 8 103 0.0 0.0 0.00 0.00 0.00 71 1014.1
20260508112507 8 84 0.0 0.0 0.00 0.00 0.00 72 1014.1
20260508112006 8 79 0.0 0.0 0.00 0.00 0.00 73 1014.1
20260508111517 7 79 0.0 0.0 0.00 0.00 0.00 74 1014.1
20260508111011 7 79 0.0 0.0 0.00 0.00 0.00 75 1014.0
20260508110507 7 76 0.0 0.0 0.00 0.00 0.00 75 1014.0
20260508110021 7 96 0.0 0.0 0.00 0.00 0.00 75 1014.0
20260508105510 6 109 0.0 0.0 0.00 0.00 0.00 75 1014.0
20260508105011 6 127 0.0 0.0 0.00 0.00 0.00 76 1014.0
20260508104524 6 127 0.0 0.0 0.00 0.00 0.00 75 1013.9
20260508104003 6 117 0.0 0.0 0.00 0.00 0.00 75 1013.9
20260508103503 7 117 0.0 1.6 0.00 0.00 0.00 73 1013.9
20260508103007 7 105 0.0 1.6 0.00 0.00 0.00 72 1013.9
20260508102504 7 104 0.0 3.2 0.00 0.00 0.00 72 1013.9
20260508102007 7 104 0.0 4.8 0.00 0.00 0.00 72 1013.8
20260508101513 7 128 1.6 4.8 0.00 0.00 0.00 70 1013.8
20260508101006 8 226 1.6 3.2 0.00 0.00 0.00 69 1013.8
20260508100511 8 266 0.0 3.2 0.00 0.00 0.00 68 1013.9
20260508100018 8 259 0.0 3.2 0.00 0.00 0.00 68 1013.9
20260508095507 8 270 0.0 6.4 0.00 0.00 0.00 68 1013.9
20260508095009 8 229 1.6 11.3 0.00 0.00 0.00 68 1013.9
20260508094521 8 242 3.2 11.3 0.00 0.00 0.00 67 1013.9
20260508094010 8 238 6.4 11.3 0.00 0.00 0.00 67 1013.9
20260508093509 8 248 4.8 8.0 0.00 0.00 0.00 67 1014.0
20260508093026 8 240 4.8 9.7 0.00 0.00 0.00 68 1014.0
20260508092504 8 243 4.8 9.7 0.00 0.00 0.00 67 1013.9
20260508092004 8 233 3.2 9.7 0.00 0.00 0.00 67 1013.9
20260508091509 8 236 3.2 12.9 0.00 0.00 0.00 67 1013.9
20260508091005 8 218 4.8 12.9 0.00 0.00 0.00 68 1013.9
20260508090504 8 246 3.2 9.7 0.00 0.00 0.00 68 1013.9
20260508090024 8 229 4.8 8.0 0.00 0.00 0.00 67 1013.9
20260508085507 8 226 3.2 8.0 0.00 0.00 0.00 68 1013.9
20260508085007 8 236 3.2 8.0 0.00 0.00 0.00 68 1013.9
20260508084519 8 159 3.2 8.0 0.00 0.00 0.00 67 1014.0
20260508084007 8 250 3.2 9.7 0.00 0.00 0.00 67 1014.0
20260508083507 8 236 4.8 9.7 0.00 0.00 0.00 67 1014.0
20260508083024 8 263 3.2 11.3 0.00 0.00 0.00 66 1014.0
20260508082511 8 242 6.4 11.3 0.00 0.00 0.00 66 1013.9
20260508082012 8 239 3.2 6.4 0.00 0.00 0.00 68 1014.0
20260508081528 8 250 3.2 6.4 0.00 0.00 0.00 68 1014.0
20260508081008 8 270 3.2 6.4 0.00 0.00 0.00 67 1013.9
20260508080505 8 248 1.6 4.8 0.00 0.00 0.00 68 1013.9
20260508080010 8 269 1.6 8.0 0.00 0.00 0.00 67 1013.9
20260508075506 8 256 1.6 8.0 0.00 0.00 0.00 65 1013.8
20260508075005 8 231 3.2 8.0 0.00 0.00 0.00 65 1013.9
20260508074520 8 252 1.6 9.7 0.00 0.00 0.00 66 1014.0
20260508074008 8 257 1.6 9.7 0.00 0.00 0.00 65 1013.9
20260508073508 8 252 0.0 4.8 0.00 0.00 0.00 66 1014.0
20260508073021 8 328 0.0 0.0 0.00 0.00 0.00 65 1014.1
20260508072507 8 319 0.0 1.6 0.00 0.00 0.00 65 1014.0
20260508072010 8 319 0.0 3.2 0.00 0.00 0.00 64 1014.1
20260508071529 8 319 1.6 4.8 0.00 0.00 0.00 63 1014.1
20260508071013 8 315 1.6 6.4 0.00 0.00 0.00 62 1014.1
20260508070512 9 280 1.6 11.3 0.00 0.00 0.00 62 1014.1
20260508070027 9 269 3.2 16.1 0.00 0.00 0.00 62 1014.1
20260508065506 9 232 4.8 16.1 0.00 0.00 0.00 61 1014.1
20260508065014 9 236 3.2 11.3 0.00 0.00 0.00 63 1014.1
20260508064515 9 223 6.4 11.3 0.00 0.00 0.00 62 1014.1
20260508064004 9 260 4.8 11.3 0.00 0.00 0.00 62 1014.2
20260508063507 9 247 6.4 11.3 0.00 0.00 0.00 62 1014.1
20260508063018 9 237 6.4 11.3 0.00 0.00 0.00 62 1014.1
20260508062510 9 231 3.2 11.3 0.00 0.00 0.00 63 1014.1
20260508062007 9 205 3.2 9.7 0.00 0.00 0.00 62 1014.1
20260508061523 9 149 4.8 9.7 0.00 0.00 0.00 61 1014.1
20260508061008 9 221 4.8 9.7 0.00 0.00 0.00 62 1014.1
20260508060508 9 199 4.8 9.7 0.00 0.00 0.00 61 1014.2
20260508060024 10 231 4.8 12.9 0.00 0.00 0.00 62 1014.2
20260508055507 10 215 6.4 12.9 0.00 0.00 0.00 62 1014.3
20260508055009 9 203 6.4 11.3 0.00 0.00 0.00 63 1014.3
20260508054529 9 195 6.4 9.7 0.00 0.00 0.00 63 1014.3
20260508054012 9 204 4.8 9.7 0.00 0.00 0.00 63 1014.3
20260508053510 9 231 4.8 9.7 0.00 0.00 0.00 63 1014.3
20260508053027 9 207 4.8 8.0 0.00 0.00 0.00 64 1014.3
20260508052505 9 207 4.8 9.7 0.00 0.00 0.00 64 1014.4
20260508052011 10 191 6.4 9.7 0.00 0.00 0.00 63 1014.3
20260508051522 10 210 6.4 9.7 0.00 0.00 0.00 62 1014.3
20260508051008 10 233 3.2 8.0 0.00 0.00 0.00 64 1014.3
20260508051004 10 231 3.2 8.0 0.00 0.00 0.00 64 1014.3
20260508050503 10 224 3.2 11.3 0.00 0.00 0.00 63 1014.3
20260508050005 10 234 4.8 11.3 0.00 0.00 0.00 63 1014.3
20260508045503 10 216 3.2 8.0 0.00 0.00 0.00 65 1014.3
20260508045004 10 201 3.2 8.0 0.00 0.00 0.00 65 1014.3
20260508044506 10 217 4.8 8.0 0.00 0.00 0.00 63 1014.3
20260508044007 10 186 3.2 9.7 0.00 0.00 0.00 64 1014.3
20260508043505 10 205 4.8 9.7 0.00 0.00 0.00 64 1014.4
20260508043009 10 195 4.8 8.0 0.00 0.00 0.00 65 1014.3
20260508042506 10 186 4.8 8.0 0.00 0.00 0.00 65 1014.3
20260508042002 10 215 4.8 8.0 0.00 0.00 0.00 64 1014.4
20260508041504 10 188 6.4 8.0 0.00 0.00 0.00 64 1014.3
20260508041002 9 205 3.2 8.0 0.00 0.00 0.00 64 1014.4
20260508040507 9 227 1.6 8.0 0.00 0.00 0.00 65 1014.5
20260508040009 10 205 3.2 6.4 0.00 0.00 0.00 64 1014.4
20260508035503 10 213 3.2 6.4 0.00 0.00 0.00 63 1014.4
20260508035003 10 215 3.2 11.3 0.00 0.00 0.00 63 1014.5
20260508034507 10 194 4.8 11.3 0.00 0.00 0.00 63 1014.4
20260508034004 10 191 6.4 9.7 0.00 0.00 0.00 63 1014.5
20260508033510 10 183 6.4 9.7 0.00 0.00 0.00 61 1014.5
20260508033011 10 218 4.8 11.3 0.00 0.00 0.00 61 1014.5
20260508032506 10 215 6.4 11.3 0.00 0.00 0.00 60 1014.5
20260508032010 10 199 6.4 9.7 0.00 0.00 0.00 61 1014.4
20260508031514 10 206 4.8 9.7 0.00 0.00 0.00 61 1014.4
20260508031007 10 205 4.8 8.0 0.00 0.00 0.00 61 1014.2
20260508030505 10 176 4.8 6.4 0.00 0.00 0.00 61 1014.1
20260508030004 10 205 1.6 3.2 0.00 0.00 0.00 62 1014.3
20260508025504 10 193 1.6 4.8 0.00 0.00 0.00 59 1014.3
20260508025005 10 192 3.2 6.4 0.00 0.00 0.00 60 1014.2
20260508024506 10 180 4.8 6.4 0.00 0.00 0.00 60 1014.0
20260508024004 10 177 4.8 6.4 0.00 0.00 0.00 61 1014.1
20260508023504 10 168 4.8 6.4 0.00 0.00 0.00 62 1014.1
20260508023006 10 194 3.2 6.4 0.00 0.00 0.00 63 1014.0
20260508022506 10 171 3.2 6.4 0.00 0.00 0.00 63 1014.0
20260508022004 10 167 3.2 4.8 0.00 0.00 0.00 63 1014.1
20260508021521 10 167 4.8 4.8 0.00 0.00 0.00 62 1014.1
20260508021005 9 182 3.2 6.4 0.00 0.00 0.00 64 1014.0
20260508020505 9 172 4.8 6.4 0.00 0.00 0.00 65 1014.1
20260508020017 9 144 0.0 1.6 0.00 0.00 0.00 71 1014.0
20260508015507 9 115 0.0 1.6 0.00 0.00 0.00 70 1014.1
20260508015007 9 118 0.0 0.0 0.00 0.00 0.00 71 1014.1
20260508014504 9 149 0.0 0.0 0.00 0.00 0.00 71 1014.2
20260508014004 9 149 0.0 0.0 0.00 0.00 0.00 65 1014.3
20260508013503 9 149 0.0 0.0 0.00 0.00 0.00 65 1014.3
20260508013007 9 148 0.0 0.0 0.00 0.00 0.00 66 1014.2
20260508012506 9 148 0.0 0.0 0.00 0.00 0.00 66 1014.1
20260508012004 9 148 0.0 0.0 0.00 0.00 0.00 69 1014.1
20260508011513 9 149 0.0 0.0 0.00 0.00 0.00 68 1014.1
20260508011004 9 149 0.0 0.0 0.00 0.00 0.00 68 1014.2
20260508010505 10 148 0.0 0.0 0.00 0.00 0.00 63 1014.3
20260508010015 10 148 0.0 0.0 0.00 0.00 0.00 62 1014.3
20260508005508 10 148 0.0 0.0 0.00 0.00 0.00 65 1014.2
20260508005008 10 154 0.0 0.0 0.00 0.00 0.00 62 1014.2
20260508004532 11 228 0.0 0.0 0.00 0.00 0.00 59 1014.2
20260508004009 11 229 0.0 0.0 0.00 0.00 0.00 55 1014.1
20260508003512 11 240 0.0 0.0 0.00 0.00 0.00 53 1014.2
20260508003024 11 240 0.0 1.6 0.00 0.00 0.00 54 1014.2
20260508002503 11 240 0.0 4.8 0.00 0.00 0.00 54 1014.1
20260508002004 12 237 1.6 4.8 0.00 0.00 0.00 53 1014.1
20260508001508 12 243 0.0 4.8 0.00 0.00 0.00 51 1014.1
20260508001004 12 255 0.0 4.8 0.00 0.00 0.00 49 1014.0
20260508000506 13 249 3.2 6.4 0.00 0.00 0.00 49 1013.9
20260508000010 13 257 3.2 6.4 0.00 0.00 0.00 48 1013.9
20260507235510 13 228 3.2 6.4 0.00 0.00 0.00 46 1013.9
20260507235005 13 263 3.2 6.4 0.00 0.00 0.00 44 1013.9
20260507234514 13 278 1.6 8.0 0.00 0.00 0.00 45 1013.9
20260507234006 13 261 3.2 12.9 0.00 0.00 0.00 44 1013.9
20260507233508 14 275 6.4 12.9 0.00 0.00 0.00 41 1013.9
20260507233028 14 253 4.8 9.7 0.00 0.00 0.00 40 1013.9
20260507232510 14 309 3.2 9.7 0.00 0.00 0.00 42 1013.9
20260507232012 14 280 3.2 9.7 0.00 0.00 0.00 42 1014.0
20260507231522 14 328 3.2 9.7 0.00 0.00 0.00 43 1013.9
20260507231012 14 343 4.8 9.7 0.00 0.00 0.00 41 1014.0
20260507230507 15 283 3.2 9.7 0.00 0.00 0.00 42 1014.0
20260507230006 15 281 3.2 11.3 0.00 0.00 0.00 41 1013.9
20260507225506 15 215 3.2 11.3 0.00 0.00 0.00 42 1014.0
20260507225007 15 270 3.2 9.7 0.00 0.00 0.00 42 1013.9
20260507224510 15 278 6.4 11.3 0.00 0.00 0.00 43 1013.9
20260507224006 15 257 4.8 16.1 0.00 0.00 0.00 42 1013.9
20260507223506 15 264 9.7 16.1 0.00 0.00 0.00 41 1013.9
20260507223016 15 246 6.4 16.1 0.00 0.00 0.00 44 1013.9
20260507222508 15 257 6.4 14.5 0.00 0.00 0.00 41 1014.0
20260507222008 15 335 3.2 9.7 0.00 0.00 0.00 39 1014.0
20260507221520 15 344 6.4 9.7 0.00 0.00 0.00 39 1014.0
20260507221015 15 13 4.8 9.7 0.00 0.00 0.00 39 1014.1